CW7218 Weather Reports


time (UTC)temp
C
wind
direction
speed
KPH
gust
KPH
rain 1hr
cm
rain 24hr
cm
rain mn
cm
humidity
%
barometer
mb
20260510064018 10 135 1.6 3.2 0.00 1.22 0.00 87 1010.5
20260510063038 10 158 1.6 3.2 0.00 1.22 0.00 86 1010.6
20260510062038 10 113 1.6 3.2 0.00 1.22 0.00 85 1010.5
20260510061018 10 113 1.6 3.2 0.00 1.22 0.00 87 1010.5
20260510060018 9 23 1.6 6.4 0.00 1.22 0.00 90 1010.3
20260510055018 8 45 4.8 6.4 0.00 1.22 0.00 89 1010.4
20260510054018 8 45 4.8 8.0 0.00 1.22 0.00 89 1010.0
20260510053018 8 68 3.2 8.0 0.00 1.22 0.00 89 1010.0
20260510052018 8 68 1.6 8.0 0.00 1.22 0.00 89 1009.9
20260510051018 8 68 3.2 8.0 0.00 1.22 0.00 90 1009.9
20260510050018 8 45 1.6 6.4 0.00 1.22 0.00 91 1009.9
20260510045018 8 0.0 0.0 0.00 1.22 0.00 90 1009.9
20260510044018 8 0.0 0.0 0.00 1.22 0.00 90 1010.1
20260510043018 8 0.0 0.0 0.00 1.22 0.00 90 1010.2
20260510042018 8 0.0 1.6 0.00 1.22 0.00 90 1010.2
20260510041018 8 90 1.6 8.0 0.00 1.22 0.00 91 1010.3
20260510040018 8 23 3.2 12.9 0.00 1.22 0.00 91 1010.5
20260510035038 8 23 8.0 17.7 0.00 1.22 0.00 91 1010.2
20260510034018 8 45 6.4 14.5 0.00 1.22 0.00 91 1010.5
20260510033018 8 45 9.7 16.1 0.00 1.22 0.00 92 1010.3
20260510032018 8 45 9.7 16.1 0.00 1.22 0.00 93 1010.5
20260510031018 8 45 8.0 14.5 0.00 1.22 0.00 92 1010.6
20260510030020 8 45 6.4 11.3 0.00 1.22 0.00 91 1010.6
20260510025040 8 23 6.4 11.3 0.00 1.22 0.00 90 1010.9
20260510024019 8 23 6.4 11.3 0.00 1.22 0.00 89 1010.9
20260510023019 9 23 4.8 8.0 0.00 1.22 0.00 87 1011.2
20260510022019 9 315 1.6 4.8 0.00 1.22 0.00 87 1011.2
20260510021019 10 315 3.2 6.4 0.00 1.22 0.00 87 1011.3
20260510020019 10 315 4.8 6.4 0.00 1.22 0.00 86 1011.2
20260510015139 10 315 3.2 6.4 0.00 1.22 0.00 86 1011.1
20260510014019 10 315 3.2 4.8 0.00 1.22 0.00 86 1011.1
20260510013019 10 0 1.6 3.2 0.00 1.22 0.00 86 1011.1
20260510012019 10 0 3.2 6.4 0.00 1.22 0.00 86 1011.2
20260510011019 10 23 4.8 8.0 0.00 1.22 0.00 86 1011.3
20260510010019 10 23 1.6 6.4 0.00 1.22 0.00 87 1011.4
20260510005018 10 23 3.2 4.8 0.00 1.22 0.00 88 1011.4
20260510004018 10 293 3.2 4.8 0.00 1.22 0.00 87 1011.7
20260510003038 10 270 1.6 4.8 0.00 1.22 0.00 89 1011.7
20260510002038 10 270 1.6 4.8 0.00 1.22 0.00 89 1011.9
20260510001018 10 338 1.6 4.8 0.00 1.22 0.00 89 1011.9
20260510000018 10 68 1.6 4.8 0.00 1.22 1.22 88 1012.1
20260509235018 10 68 3.2 6.4 0.00 1.22 1.22 88 1012.1
20260509234018 10 90 3.2 6.4 0.00 1.22 1.22 88 1012.2
20260509233018 11 68 3.2 6.4 0.00 1.22 1.22 88 1012.2
20260509232018 11 23 4.8 9.7 0.00 1.22 1.22 87 1012.5
20260509231018 11 0 1.6 4.8 0.00 1.22 1.22 85 1012.6
20260509230018 11 0.0 1.6 0.00 1.22 1.22 87 1012.7
20260509225038 11 0.0 1.6 0.00 1.22 1.22 87 1012.7
20260509224018 11 0.0 3.2 0.00 1.22 1.22 87 1012.8
20260509223018 11 0.0 1.6 0.00 1.22 1.22 87 1012.8
20260509222018 11 0 1.6 4.8 0.00 1.22 1.22 86 1012.6
20260509221018 11 23 4.8 9.7 0.00 1.22 1.22 87 1012.5
20260509220018 11 338 4.8 9.7 0.00 1.22 1.22 86 1012.4
20260509215018 11 315 1.6 4.8 0.00 1.22 1.22 87 1012.5
20260509214018 11 315 3.2 9.7 0.00 1.22 1.22 88 1012.3
20260509213018 11 293 4.8 11.3 0.00 1.22 1.22 89 1012.3
20260509212018 11 248 8.0 12.9 0.00 1.22 1.22 89 1012.4
20260509211018 11 180 4.8 9.7 0.00 1.22 1.22 87 1012.2
20260509210018 11 45 8.0 17.7 0.00 1.22 1.22 81 1011.9
20260509205018 11 23 14.5 20.9 0.00 1.22 1.22 79 1011.7
20260509204018 11 23 14.5 24.1 0.00 1.22 1.22 80 1011.7
20260509203018 11 23 12.9 20.9 0.00 1.22 1.22 81 1011.5
20260509202038 11 45 12.9 17.7 0.00 1.22 1.22 82 1011.3
20260509201018 12 45 9.7 16.1 0.00 1.22 1.22 78 1011.2
20260509200018 12 0 6.4 14.5 0.00 1.22 1.22 78 1011.1
20260509195017 11 23 4.8 8.0 0.03 1.22 1.22 83 1010.9
20260509194018 11 23 6.4 14.5 0.03 1.22 1.22 82 1010.5
20260509193018 11 68 3.2 14.5 0.03 1.22 1.22 82 1010.3
20260509192018 12 45 3.2 11.3 0.05 1.22 1.22 83 1010.2
20260509191018 11 45 8.0 16.1 0.05 1.22 1.22 82 1009.7
20260509190017 12 45 11.3 17.7 0.05 1.22 1.22 83 1009.6
20260509185018 11 45 11.3 17.7 0.08 1.19 1.19 84 1009.5
20260509184019 12 68 12.9 22.5 0.13 1.19 1.19 85 1009.4
20260509183020 12 68 16.1 25.7 0.18 1.19 1.19 84 1009.3
20260509182139 12 68 17.7 25.7 0.23 1.17 1.17 83 1009.2
20260509181019 11 45 11.3 19.3 0.30 1.17 1.17 85 1009.3
20260509180019 12 45 12.9 20.9 0.36 1.17 1.17 85 1009.4
20260509175019 12 45 12.9 20.9 0.41 1.12 1.12 84 1009.6
20260509174019 12 23 11.3 19.3 0.46 1.09 1.09 86 1009.7
20260509173019 12 45 9.7 17.7 0.48 1.02 1.02 89 1010.0
20260509172019 12 45 6.4 12.9 0.56 0.94 0.94 89 1010.4
20260509171039 11 90 3.2 8.0 0.79 0.86 0.86 90 1010.7
20260509170019 12 0 3.2 6.4 0.79 0.79 0.79 90 1010.8
20260509165019 12 203 3.2 9.7 0.71 0.71 0.71 90 1010.9
20260509164039 12 180 6.4 12.9 0.61 0.61 0.64 89 1011.0
20260509163019 12 203 9.7 17.7 0.53 0.53 0.53 87 1011.0
20260509162019 13 203 8.0 16.1 0.38 0.38 0.38 85 1011.2
20260509161019 13 203 8.0 14.5 0.05 0.05 0.05 82 1011.1
20260509160019 14 203 11.3 16.1 0.00 0.00 0.00 78 1011.1
20260509155019 14 135 6.4 12.9 0.00 0.00 0.00 75 1010.6
20260509154039 15 180 4.8 8.0 0.00 0.00 0.00 75 1010.3
20260509153019 15 180 3.2 6.4 0.00 0.00 0.00 75 1009.9
20260509152039 15 90 3.2 8.0 0.00 0.00 0.00 72 1009.8
20260509151019 15 135 3.2 9.7 0.00 0.00 0.00 72 1009.7
20260509150019 15 135 4.8 8.0 0.00 0.00 0.00 73 1009.9
20260509145019 15 90 4.8 9.7 0.00 0.00 0.00 73 1010.1
20260509144019 15 90 9.7 16.1 0.00 0.00 0.00 73 1010.1
20260509143019 15 68 12.9 19.3 0.00 0.00 0.00 71 1010.3
20260509142019 15 90 8.0 22.5 0.00 0.00 0.00 69 1010.5
20260509141019 15 338 8.0 17.7 0.00 0.00 0.00 70 1010.7
20260509140019 15 315 8.0 12.9 0.00 0.00 0.00 72 1010.9
20260509135019 15 225 4.8 9.7 0.00 0.00 0.00 72 1011.4
20260509134019 15 203 6.4 9.7 0.00 0.00 0.00 72 1011.8
20260509133019 15 203 9.7 16.1 0.00 0.00 0.00 73 1011.8
20260509132019 15 203 8.0 16.1 0.00 0.00 0.00 72 1011.7
20260509131018 15 180 9.7 16.1 0.00 0.00 0.00 71 1011.5
20260509130019 15 158 8.0 14.5 0.00 0.00 0.00 69 1011.3
20260509125018 15 135 9.7 20.9 0.00 0.00 0.00 69 1011.3
20260509124018 16 135 9.7 20.9 0.00 0.00 0.00 67 1011.7
20260509123018 16 135 8.0 17.7 0.00 0.00 0.00 68 1011.8
20260509122018 16 158 9.7 17.7 0.00 0.00 0.00 69 1012.0
20260509121018 16 158 11.3 24.1 0.00 0.00 0.00 69 1012.2
20260509120018 16 180 11.3 24.1 0.00 0.00 0.00 69 1012.3
20260509115018 16 180 8.0 16.1 0.00 0.00 0.00 67 1012.3
20260509114018 16 158 8.0 14.5 0.00 0.00 0.00 67 1012.4
20260509113018 16 180 8.0 14.5 0.00 0.00 0.00 66 1012.5
20260509112038 16 158 6.4 14.5 0.00 0.00 0.00 65 1012.4
20260509111018 17 270 3.2 9.7 0.00 0.00 0.00 64 1012.2
20260509110018 17 113 3.2 6.4 0.00 0.00 0.00 63 1012.4
20260509105018 16 158 3.2 9.7 0.00 0.00 0.00 65 1012.5
20260509104038 16 135 4.8 11.3 0.00 0.00 0.00 64 1012.9
20260509103038 16 180 3.2 9.7 0.00 0.00 0.00 65 1012.7
20260509102018 16 180 4.8 11.3 0.00 0.00 0.00 66 1012.9
20260509101018 16 180 8.0 12.9 0.00 0.00 0.00 65 1012.8
20260509100018 16 180 6.4 11.3 0.00 0.00 0.00 65 1012.7
20260509095018 17 180 4.8 9.7 0.00 0.00 0.00 64 1012.9
20260509094018 16 158 3.2 8.0 0.00 0.00 0.00 65 1012.5
20260509093018 16 158 4.8 9.7 0.00 0.00 0.00 68 1012.5
20260509092018 15 180 4.8 11.3 0.00 0.00 0.00 67 1012.3
20260509091018 15 158 4.8 8.0 0.00 0.00 0.00 70 1012.7
20260509090018 15 68 4.8 12.9 0.00 0.00 0.00 62 1012.6
20260509085018 15 113 4.8 9.7 0.00 0.00 0.00 61 1012.5
20260509084018 15 90 4.8 11.3 0.00 0.00 0.00 65 1012.3
20260509083018 15 90 8.0 14.5 0.00 0.00 0.00 67 1012.2
20260509082018 15 90 8.0 16.1 0.00 0.00 0.00 67 1012.2
20260509081018 14 90 11.3 17.7 0.00 0.00 0.00 69 1012.2
20260509080018 14 90 11.3 20.9 0.00 0.00 0.00 71 1012.1
20260509075017 14 68 8.0 16.1 0.00 0.00 0.00 71 1012.5
20260509074018 13 45 12.9 19.3 0.00 0.00 0.00 72 1012.4
20260509073038 13 45 16.1 22.5 0.00 0.00 0.00 73 1012.2
20260509072038 13 45 14.5 22.5 0.00 0.00 0.00 76 1012.2
20260509071017 12 45 16.1 22.5 0.00 0.00 0.00 78 1012.3
20260509070038 12 23 14.5 24.1 0.00 0.00 0.00 79 1012.1
20260509065037 11 45 12.9 22.5 0.00 0.00 0.00 81 1012.5